Location: Newark
(44.3681°N, 100.3364°W)
Time: 21:25:08
(UTC+00:00)

Vanguard 1 - Pass Details

Date: 28 February 2020
Orbit: 649 x 3833 km, 34.2° (Epoch: 09 April)

Event Time Altitude Azimuth Distance (km) Brightness Sun altitude
Rises 16:54:42 0° 270° (W) 7,912 14.4 31.1°
Reaches altitude 10° 17:00:35 10° 267° (W) 6,700 14.1 31.7°
Maximum altitude 17:20:03 53° 198° (SSW) 3,050 13.5 33.5°
Drops below altitude 10° 17:31:25 10° 126° (SE) 4,096 14.2 34.4°
Sets 17:34:05 0° 121° (ESE) 4,759 14.3 34.6°
